{"data":{"norad_id":60150,"epoch":"2026-05-24T21:11:02.725152Z","epoch_age_seconds":75300,"freshness":"FRESH","line1":"1 60150U 24120R   26144.88267043 -.00002758  00000+0 -81035-4 0  9990","line2":"2 60150  53.1610 325.8727 0000967  90.4417 269.6694 15.30196714108043","mean_motion":15.30196714,"eccentricity":9.67e-5,"inclination_deg":53.161,"raan_deg":325.8727,"arg_perigee_deg":90.4417,"mean_anomaly_deg":269.6694,"bstar":-8.1035e-5,"rev_number":10804,"period_min":94.105547791681,"perigee_km":474.5621607467,"apogee_km":475.88760093445,"semimajor_km":6853.3618808406,"source":"CELESTRAK","updated_at":"2026-05-25T13:38:19.191189Z"}}